Regional Weather Roundup
Issued by NWS

Home | Current Version | Previous Version | Graphics & Text | Print | Product List | Glossary On
Versions: 1 2 3 4 5 6 7 8 9 10 11 12 13 14 15 16 17 18 19 20 21 22 23 24 25 26 27 28 29 30 31 32 33 34 35 36 37 38 39 40 41 42 43 44 45 46 47 48 49 50
270
ASUS45 KBOI 131610
RWRID

IDAHO REGIONAL WEATHER ROUNDUP
NATIONAL WEATHER SERVICE BOISE ID
900 AM MST SAT FEB 13 2016

NOTE: "FAIR" INDICATES FEW OR NO CLOUDS BELOW 12000 FEET
WITH NO SIGNIFICANT WEATHER AND/OR OBSTRUCTIONS TO VISIBILITY

IDZ012-014-131700-
SOUTHWEST IDAHO


CITY           SKY/WX    TMP DP  RH WIND       PRES   REMARKS
BOISE          SUNNY     31  30  96 SE3       30.33R FOG
CALDWELL       MOSUNNY   34  32  92 CALM      30.35S FOG
MOUNTAIN HOME  SUNNY     31  30  95 CALM      30.33R
$$

IDZ016-017-131700-
SOUTHCENTRAL IDAHO


CITY           SKY/WX    TMP DP  RH WIND       PRES   REMARKS
BURLEY         LGT RAIN  34  32  92 W9        30.26R WCI  27
JEROME         MOSUNNY   30  28  92 SW10      30.28R FOG     WCI  21
TWIN FALLS     CLOUDY    37  31  78 SW15      30.28R WCI  28
$$

IDZ019>023-131700-
SOUTHEAST IDAHO


CITY           SKY/WX    TMP DP  RH WIND       PRES   REMARKS
IDAHO FALLS    CLOUDY    21  19  92 SW7       30.16S FOG     WCI  12
POCATELLO      CLOUDY    39  26  59 SW21G28   30.20R WCI  29
REXBURG        CLOUDY    19  18  95 S5        30.15R FOG     WCI  12
$$

IDZ006-010-011-018-031-032-131700-
CENTRAL IDAHO MOUNTAINS


CITY           SKY/WX    TMP DP  RH WIND       PRES   REMARKS
MCCALL         CLOUDY    32  28  85 N3        30.23R
HAILEY         MOSUNNY   27  25  93 SE7       30.20R WCI  19
STANLEY          N/A     35  16  45 W8G18     30.20R WCI  29
SALMON         CLOUDY    32  30  93 SE9       30.15R WCI  24
CHALLIS        CLOUDY    42  20  41 SW18G25   30.12R
$$

IDZ002-004-006-007-026-131700-
NORTHERN IDAHO


CITY           SKY/WX    TMP DP  RH WIND       PRES   REMARKS
LEWISTON       PTCLDY    46  33  60 SE7       30.27R
LOWELL           N/A     38  36  92 CALM      30.31R
COEUR D`ALENE  MOCLDY    39  36  87 SW12      30.19R WCI  32
MULLAN PASS    SNOW      26  25  96 NW9G23    30.09R VSB 1/4 WCI  17
$$




USA.gov is the U.S. government's official web portal to all federal, state and local government web resources and services.